Weather History for KAUG - July, 2013

Change the Weather History Date:

Monday, July 29, 2013

  Actual Average Record
Temperature  
Mean Temperature 68 °F 70 °F  
Max Temperature 75 °F 80 °F 89 °F (1999)
Min Temperature 62 °F 60 °F 52 °F (2001)
Degree Days  
Heating Degree Days 0 0  
Month to date heating degree days 12  
Since 1 June heating degree days 106  
Since 1 July heating degree days 12  
Cooling Degree Days 2 5  
Month to date cooling degree days 140  
Year to date cooling degree days 213  
Since 1 June cooling degree days 204  
Growing Degree Days 18 (Base 50)    
Moisture  
Dew Point 64 °F    
Average Humidity 94    
Maximum Humidity 100    
Minimum Humidity 73    
Precipitation  
Precipitation 0.05 in 0.12 in 0.24 in (2008)
Month to date precipitation 3.18  
Year to date precipitation 22.63  
Sea Level Pressure  
Sea Level Pressure 30.03 in    
Wind  
Wind Speed 2 mph (SSE)    
Max Wind Speed 8 mph    
Max Gust Speed -    
Visibility 6 miles    
Events Fog , Rain , Thunderstorm    
T = Trace of Precipitation, MM = Missing Value Source: NWS Daily Summary

Daily Weather History Graph

Daily Weather History Graph

Search for Another Location

Airport or City:

Trip Planner

Search our weather history database for the weather conditions in past years. The results will help you decide how hot, cold, wet, or windy it might be!

Date:

Astronomy

Jul. 29, 2013 Rise Set
Actual Time 5:23 AM EDT 8:07 PM EDT
Civil Twilight 4:49 AM EDT 8:40 PM EDT
Nautical Twilight 4:07 AM EDT 9:22 PM EDT
Astronomical Twilight 3:18 AM EDT 10:11 PM EDT
Moon 11:42 PM EDT 1:22 PM EDT
Length of Visible Light 15h 50m
Length of Day
14h 43m
Waning Gibbous, 51% of the Moon is Illuminated
Jul 29
Waning Gibbous
Jul 29
Last Quarter
Aug 6
New
Aug 14
First Quarter
Aug 20
Full

Hourly Weather History & Observations

Time (EDT) Temp. Dew Point Humidity Pressure Visibility Wind Dir Wind Speed Gust Speed Precip Events Conditions
12:46 AM 64.4 °F 64.4 °F 100% 30.03 in 9.0 mi Calm Calm - 0.00 in Rain Light Rain
12:53 AM 64.9 °F 64.0 °F 97% 30.03 in 9.0 mi SE 3.5 mph - 0.00 in Rain Light Rain
1:44 AM 64.4 °F 64.4 °F 100% 30.02 in 7.0 mi Calm Calm - 0.00 in Rain Light Rain
1:53 AM 64.9 °F 64.0 °F 97% 30.02 in 6.0 mi Calm Calm - 0.00 in Rain Light Rain
2:34 AM 64.4 °F 64.4 °F 100% 30.02 in 6.0 mi Calm Calm - 0.01 in   Overcast
2:53 AM 64.9 °F 64.0 °F 97% 30.01 in 7.0 mi Calm Calm - 0.01 in   Overcast
3:00 AM 64.4 °F 64.4 °F 100% 30.02 in 6.0 mi Calm Calm - N/A   Overcast
3:11 AM 64.4 °F 64.4 °F 100% 30.02 in 6.0 mi Calm Calm - N/A   Overcast
3:53 AM 64.0 °F 64.0 °F 100% 30.02 in 3.0 mi Calm Calm - N/A   Overcast
4:11 AM 64.4 °F 64.4 °F 100% 30.02 in 4.0 mi Calm Calm - N/A   Overcast
4:35 AM 64.4 °F 62.6 °F 94% 30.02 in 5.0 mi Calm Calm - N/A   Overcast
4:43 AM 64.4 °F 64.4 °F 100% 30.02 in 3.0 mi Calm Calm - N/A   Overcast
4:53 AM 64.0 °F 63.0 °F 96% 30.03 in 4.0 mi Calm Calm - N/A   Overcast
5:05 AM 64.4 °F 62.6 °F 94% 30.03 in 2.5 mi Calm Calm - N/A   Overcast
5:29 AM 64.4 °F 62.6 °F 94% 30.03 in 1.0 mi Calm Calm - N/A   Overcast
5:39 AM 64.4 °F 62.6 °F 94% 30.03 in 0.8 mi Variable 3.5 mph - N/A   Mist
5:53 AM 63.0 °F 63.0 °F 100% 30.03 in 0.5 mi SE 4.6 mph - N/A Fog Fog
6:10 AM 62.6 °F 62.6 °F 100% 30.04 in 1.5 mi Calm Calm - N/A   Overcast
6:48 AM 64.4 °F 62.6 °F 94% 30.02 in 3.0 mi Calm Calm - N/A   Overcast
6:53 AM 64.0 °F 63.0 °F 96% 30.02 in 4.0 mi Calm Calm - N/A   Overcast
7:53 AM 64.0 °F 63.0 °F 96% 30.04 in 5.0 mi Calm Calm - N/A   Overcast
7:59 AM 64.4 °F 62.6 °F 94% 30.03 in 2.5 mi SSE 4.6 mph - N/A   Overcast
8:10 AM 64.4 °F 62.6 °F 94% 30.03 in 1.0 mi South 4.6 mph - N/A   Overcast
8:18 AM 64.4 °F 62.6 °F 94% 30.03 in 0.8 mi Calm Calm - N/A   Overcast
8:31 AM 64.4 °F 64.4 °F 100% 30.03 in 1.2 mi SE 3.5 mph - N/A   Overcast
8:53 AM 64.0 °F 63.0 °F 96% 30.03 in 2.0 mi Calm Calm - N/A   Overcast
9:05 AM 64.4 °F 64.4 °F 100% 30.03 in 4.0 mi SSW 3.5 mph - N/A   Overcast
9:18 AM 64.4 °F 64.4 °F 100% 30.04 in 2.5 mi Calm Calm - N/A   Overcast
9:28 AM 64.4 °F 62.6 °F 94% 30.04 in 3.0 mi Calm Calm - N/A   Overcast
9:53 AM 64.9 °F 64.0 °F 97% 30.05 in 2.5 mi Calm Calm - N/A   Overcast
10:53 AM 64.9 °F 64.0 °F 97% 30.05 in 2.5 mi SSW 3.5 mph - N/A   Overcast
11:06 AM 64.4 °F 64.4 °F 100% 30.05 in 3.0 mi South 4.6 mph - N/A   Overcast
11:35 AM 66.2 °F 64.4 °F 94% 30.05 in 8.0 mi Calm Calm - N/A   Overcast
11:53 AM 66.9 °F 64.0 °F 90% 30.05 in 10.0 mi SSE 4.6 mph - N/A   Overcast
12:21 PM 68.0 °F 64.4 °F 88% 30.05 in 10.0 mi Variable 3.5 mph - N/A   Overcast
12:53 PM 69.1 °F 64.0 °F 84% 30.05 in 10.0 mi SSE 4.6 mph - N/A   Overcast
1:53 PM 70.0 °F 64.9 °F 84% 30.04 in 10.0 mi SE 3.5 mph - N/A   Overcast
2:12 PM 71.6 °F 64.4 °F 78% 30.04 in 10.0 mi ESE 3.5 mph - N/A   Overcast
2:53 PM 72.0 °F 64.9 °F 78% 30.03 in 10.0 mi Calm Calm - N/A   Overcast
3:53 PM 73.9 °F 64.9 °F 73% 30.00 in 10.0 mi SSE 6.9 mph - N/A   Mostly Cloudy
4:53 PM 73.9 °F 64.9 °F 73% 30.01 in 10.0 mi Variable 6.9 mph - N/A   Mostly Cloudy
5:45 PM 73.4 °F 66.2 °F 78% 30.01 in 10.0 mi SSE 6.9 mph - N/A   Mostly Cloudy
5:53 PM 73.9 °F 66.0 °F 76% 30.02 in 10.0 mi SE 6.9 mph - N/A   Mostly Cloudy
6:53 PM 71.1 °F 66.0 °F 84% 30.02 in 10.0 mi South 8.1 mph - N/A   Clear
7:53 PM 70.0 °F 64.9 °F 84% 30.04 in 10.0 mi SSE 6.9 mph - N/A   Overcast
8:07 PM 69.8 °F 64.4 °F 83% 30.05 in 10.0 mi SSW 5.8 mph - 0.00 in Rain Light Rain
8:26 PM 66.2 °F 66.2 °F 100% 30.05 in 5.0 mi SSE 4.6 mph - 0.02 in Rain , Thunderstorm Light Rain
8:37 PM 66.2 °F 66.2 °F 100% 30.05 in 8.0 mi Calm Calm - 0.02 in Rain , Thunderstorm Light Rain
8:41 PM 66.2 °F 66.2 °F 100% 30.06 in 9.0 mi Calm Calm - 0.02 in Rain Light Rain
8:50 PM 66.2 °F 66.2 °F 100% 30.05 in 7.0 mi ESE 8.1 mph - 0.03 in Rain Light Rain
8:53 PM 66.9 °F 66.0 °F 97% 30.04 in 6.0 mi ESE 8.1 mph - 0.03 in Rain Light Rain
9:11 PM 66.2 °F 66.2 °F 100% 30.05 in 10.0 mi SE 5.8 mph - 0.01 in Rain Light Rain
9:53 PM 64.9 °F 64.0 °F 97% 30.07 in 10.0 mi Calm Calm - 0.01 in   Overcast
10:36 PM 64.4 °F 62.6 °F 94% 30.05 in 10.0 mi Calm Calm - N/A   Overcast
10:53 PM 64.0 °F 63.0 °F 96% 30.05 in 10.0 mi South 3.5 mph - N/A   Mostly Cloudy
11:01 PM 64.4 °F 62.6 °F 94% 30.05 in 8.0 mi Calm Calm - N/A   Scattered Clouds
11:21 PM 64.4 °F 62.6 °F 94% 30.05 in 5.0 mi Calm Calm - N/A   Scattered Clouds
11:53 PM 62.1 °F 62.1 °F 100% 30.05 in 1.8 mi Calm Calm - N/A   Partly Cloudy